Precipitable_Water
0.45 0.34 0.27 0.32 0.37 0.36 0.33 0.30 0.29 0.32 0.33 0.29 0.26 0.25 0.24 0.28 0.35 0.38 0.44 0.46 0.51 0.56 0.67 0.77 0.79 0.82 0.85 0.85 0.85 0.92 0.97 1.01 1.00 1.06 1.13 1.10 1.09 1.08 1.15 1.19 1.30 1.31 1.39 1.43
0.39 0.33 0.38 0.39 0.38 0.36 0.34 0.31 0.29 0.30 0.33 0.29 0.27 0.24 0.25 0.26 0.31 0.37 0.41 0.47 0.51 0.57 0.66 0.73 0.80 0.84 0.89 0.96 0.92 0.88 0.86 0.94 1.01 1.08 1.21 1.15 1.16 1.18 1.16 1.20 1.23 1.36 1.42 1.46
0.34 0.36 0.43 0.40 0.35 0.33 0.33 0.29 0.28 0.27 0.32 0.31 0.26 0.22 0.27 0.33 0.35 0.43 0.45 0.48 0.54 0.59 0.65 0.73 0.81 0.86 0.91 0.95 0.99 1.02 0.98 1.00 1.02 1.17 1.20 1.22 1.19 1.21 1.11 1.13 1.19 1.30 1.41 1.49
0.37 0.40 0.39 0.38 0.32 0.33 0.28 0.34 0.32 0.30 0.28 0.20 0.28 0.16 0.22 0.32 0.38 0.43 0.41 0.46 0.55 0.63 0.70 0.76 0.83 0.86 0.93 1.04 1.14 1.09 1.07 1.02 1.13 1.27 1.15 1.10 1.04 1.01 1.08 1.15 1.22 1.32 1.39 1.53
0.32 0.37 0.37 0.36 0.35 0.37 0.29 0.36 0.33 0.31 0.27 0.24 0.23 0.20 0.21 0.32 0.34 0.40 0.41 0.46 0.57 0.65 0.71 0.76 0.84 0.89 0.97 1.04 1.14 1.19 1.12 1.09 1.15 1.12 1.11 1.10 1.07 1.11 1.09 1.15 1.20 1.32 1.43 1.52
0.38 0.46 0.42 0.40 0.41 0.40 0.38 0.35 0.33 0.31 0.28 0.19 0.22 0.23 0.22 0.31 0.35 0.39 0.43 0.49 0.57 0.64 0.71 0.80 0.89 0.95 0.96 1.06 1.08 1.11 1.10 1.11 1.15 1.14 1.17 1.14 1.11 1.18 1.13 1.14 1.12 1.25 1.38 1.50
0.37 0.36 0.41 0.43 0.37 0.38 0.36 0.30 0.22 0.21 0.23 0.19 0.32 0.26 0.26 0.35 0.39 0.40 0.39 0.45 0.57 0.64 0.70 0.77 0.85 0.89 0.95 1.01 1.08 1.12 1.13 1.09 1.16 1.21 1.26 1.22 1.14 1.12 1.10 1.19 1.18 1.29 1.39 1.39
0.30 0.27 0.36 0.41 0.37 0.34 0.33 0.30 0.22 0.16 0.20 0.24 0.35 0.23 0.25 0.35 0.40 0.43 0.44 0.50 0.58 0.60 0.69 0.76 0.83 0.87 0.94 0.98 1.04 1.07 1.10 1.17 1.21 1.24 1.23 1.20 1.14 1.12 1.23 1.28 1.24 1.31 1.41 1.40
0.31 0.31 0.40 0.41 0.41 0.40 0.36 0.29 0.33 0.27 0.26 0.21 0.23 0.27 0.33 0.39 0.40 0.39 0.40 0.49 0.52 0.56 0.64 0.72 0.82 0.88 0.91 0.97 1.03 1.05 1.07 1.10 1.16 1.19 1.23 1.22 1.16 1.15 1.24 1.33 1.35 1.37 1.44 1.44
0.38 0.31 0.41 0.42 0.41 0.41 0.38 0.41 0.29 0.28 0.18 0.17 0.20 0.22 0.23 0.31 0.33 0.36 0.36 0.45 0.52 0.56 0.60 0.70 0.78 0.85 0.91 0.94 0.97 1.00 1.05 1.07 1.11 1.13 1.16 1.16 1.15 1.16 1.25 1.35 1.34 1.35 1.40 1.42
0.41 0.39 0.37 0.42 0.37 0.33 0.34 0.33 0.34 0.32 0.26 0.19 0.18 0.21 0.29 0.32 0.34 0.32 0.36 0.47 0.52 0.55 0.59 0.64 0.73 0.81 0.86 0.89 0.87 0.88 0.92 0.94 0.98 1.01 1.03 1.08 1.14 1.20 1.29 1.24 1.29 1.35 1.36 1.36
0.42 0.40 0.34 0.36 0.41 0.41 0.38 0.34 0.35 0.28 0.24 0.24 0.23 0.20 0.28 0.37 0.36 0.37 0.36 0.49 0.56 0.59 0.61 0.65 0.67 0.76 0.80 0.83 0.83 0.86 0.92 0.96 1.03 1.05 1.04 1.05 1.11 1.15 1.19 1.16 1.20 1.30 1.32 1.34
0.43 0.39 0.33 0.34 0.38 0.39 0.36 0.36 0.35 0.35 0.32 0.24 0.21 0.22 0.32 0.37 0.34 0.36 0.38 0.50 0.55 0.59 0.60 0.64 0.66 0.68 0.73 0.77 0.79 0.84 0.92 1.01 1.06 1.06 1.02 1.05 1.07 1.12 1.23 1.26 1.27 1.30 1.23 1.26
0.52 0.40 0.34 0.28 0.32 0.36 0.33 0.34 0.35 0.33 0.27 0.24 0.23 0.26 0.30 0.32 0.31 0.34 0.44 0.50 0.54 0.57 0.58 0.61 0.65 0.68 0.70 0.74 0.78 0.84 0.93 1.00 1.05 1.06 1.06 1.07 1.09 1.13 1.17 1.17 1.16 1.18 1.21 1.18
0.49 0.34 0.36 0.38 0.40 0.41 0.38 0.35 0.34 0.31 0.30 0.25 0.26 0.26 0.28 0.31 0.33 0.36 0.46 0.49 0.50 0.52 0.56 0.60 0.64 0.69 0.73 0.73 0.79 0.87 0.94 0.97 1.00 1.00 1.02 1.04 1.07 1.09 1.11 1.14 1.12 1.13 1.11 1.11
0.51 0.34 0.38 0.34 0.40 0.41 0.38 0.38 0.35 0.33 0.32 0.31 0.30 0.26 0.32 0.36 0.39 0.39 0.45 0.49 0.46 0.48 0.54 0.60 0.65 0.70 0.73 0.78 0.81 0.88 0.89 0.93 0.97 0.96 0.96 0.99 1.02 1.02 1.02 1.05 1.06 1.01 0.96 0.92
0.44 0.37 0.37 0.29 0.36 0.37 0.33 0.34 0.35 0.35 0.34 0.34 0.27 0.29 0.32 0.33 0.35 0.36 0.41 0.47 0.47 0.47 0.53 0.59 0.64 0.69 0.74 0.73 0.83 0.85 0.88 0.91 0.90 0.91 0.93 0.93 0.91 0.85 0.81 0.77 0.69 0.63 0.58 0.58
0.43 0.43 0.38 0.27 0.34 0.27 0.34 0.43 0.40 0.36 0.36 0.36 0.33 0.35 0.33 0.32 0.35 0.38 0.44 0.47 0.48 0.49 0.53 0.61 0.67 0.68 0.71 0.76 0.82 0.85 0.86 0.81 0.78 0.77 0.74 0.71 0.66 0.58 0.53 0.49 0.46 0.45 0.45 0.45
0.46 0.43 0.37 0.31 0.28 0.30 0.41 0.41 0.37 0.33 0.30 0.36 0.34 0.36 0.35 0.35 0.34 0.36 0.43 0.50 0.51 0.52 0.54 0.64 0.69 0.69 0.70 0.74 0.80 0.81 0.79 0.74 0.66 0.62 0.59 0.55 0.49 0.44 0.44 0.43 0.43 0.43 0.43 0.42
0.37 0.44 0.37 0.36 0.30 0.25 0.32 0.43 0.44 0.41 0.28 0.37 0.36 0.34 0.33 0.34 0.26 0.27 0.41 0.48 0.54 0.57 0.58 0.64 0.69 0.69 0.68 0.72 0.77 0.75 0.71 0.66 0.55 0.53 0.50 0.48 0.45 0.43 0.43 0.44 0.43 0.44 0.43 0.41
0.27 0.33 0.29 0.30 0.33 0.34 0.45 0.47 0.48 0.31 0.30 0.39 0.38 0.35 0.35 0.30 0.30 0.34 0.40 0.46 0.54 0.58 0.59 0.66 0.68 0.62 0.64 0.70 0.71 0.66 0.63 0.57 0.55 0.51 0.48 0.45 0.45 0.44 0.44 0.44 0.45 0.45 0.44 0.43
0.30 0.27 0.29 0.30 0.30 0.29 0.50 0.48 0.38 0.40 0.42 0.42 0.41 0.37 0.35 0.35 0.36 0.36 0.38 0.44 0.51 0.57 0.60 0.65 0.64 0.61 0.65 0.68 0.65 0.60 0.58 0.59 0.55 0.49 0.45 0.43 0.43 0.44 0.44 0.43 0.43 0.43 0.42 0.41
0.27 0.38 0.31 0.31 0.24 0.44 0.48 0.49 0.51 0.49 0.44 0.44 0.42 0.44 0.39 0.37 0.36 0.37 0.37 0.44 0.50 0.56 0.58 0.64 0.62 0.61 0.64 0.65 0.65 0.56 0.56 0.54 0.50 0.45 0.41 0.41 0.41 0.42 0.43 0.41 0.41 0.41 0.41 0.40
0.32 0.37 0.39 0.38 0.35 0.39 0.44 0.55 0.55 0.52 0.48 0.47 0.45 0.43 0.43 0.38 0.38 0.37 0.39 0.43 0.50 0.56 0.57 0.63 0.62 0.60 0.59 0.64 0.65 0.61 0.56 0.51 0.48 0.43 0.41 0.41 0.40 0.40 0.41 0.42 0.41 0.40 0.39 0.38
0.37 0.41 0.35 0.31 0.36 0.45 0.45 0.49 0.55 0.55 0.52 0.49 0.46 0.44 0.43 0.42 0.39 0.39 0.40 0.43 0.50 0.54 0.59 0.62 0.58 0.58 0.57 0.63 0.64 0.61 0.56 0.51 0.46 0.44 0.41 0.40 0.40 0.39 0.39 0.40 0.40 0.40 0.40 0.39
0.33 0.33 0.34 0.30 0.36 0.36 0.44 0.48 0.60 0.55 0.52 0.49 0.46 0.42 0.47 0.44 0.40 0.41 0.41 0.44 0.49 0.53 0.58 0.60 0.59 0.59 0.60 0.62 0.62 0.59 0.57 0.51 0.47 0.43 0.42 0.40 0.39 0.39 0.39 0.40 0.41 0.45 0.44 0.43
Wind_Speed
15 15 16 17 17 18 19 18 17 17 18 16 18 20 21 20 18 16 18 17 18 19 23 27 29 27 27 24 21 19 20 25 26 25 26 24 23 23 25 26 26 26 27 28
19 20 19 18 19 17 16 18 18 19 19 15 19 21 22 21 17 16 15 14 16 19 23 24 23 22 21 19 13 9 12 20 23 23 23 22 21 20 22 23 23 24 27 29
22 18 17 17 19 18 19 20 19 20 18 18 21 23 19 15 13 11 13 12 14 17 19 20 19 18 17 15 9 5 8 14 19 21 22 18 17 17 19 20 22 21 24 29
23 24 25 20 19 19 19 18 17 19 15 15 13 15 17 10 10 10 11 11 11 14 16 16 15 15 14 12 8 1 5 12 15 18 19 18 17 16 17 19 19 21 22 26
21 18 20 23 22 19 19 14 15 15 17 18 18 16 13 9 10 10 11 8 10 11 13 13 13 11 11 10 8 5 5 9 12 14 16 15 14 16 16 18 19 21 21 26
28 23 19 21 19 19 16 13 16 16 15 14 18 16 12 10 10 9 6 7 7 9 10 11 10 8 8 9 8 5 4 6 8 12 13 13 13 14 16 17 18 22 23 27
28 31 24 21 18 17 16 13 12 12 11 12 9 10 12 5 7 7 7 5 6 6 7 8 9 6 6 7 7 6 4 4 5 8 9 10 11 11 15 16 16 19 25 29
28 27 31 25 26 19 21 19 13 12 11 11 9 10 10 6 6 6 6 5 4 5 6 6 6 6 4 5 6 5 5 4 4 5 6 6 7 9 11 13 16 23 27 27
24 28 24 25 24 26 19 21 20 15 16 14 13 14 11 8 8 7 6 5 4 4 4 4 4 4 3 3 4 4 3 4 4 3 5 5 5 3 4 7 14 19 24 25
28 25 22 22 22 27 27 17 15 17 13 13 13 13 10 10 10 9 8 7 5 3 2 2 3 3 3 2 2 2 3 3 3 3 2 2 1 4 6 10 13 17 20 21
37 30 20 22 26 25 25 23 20 17 16 12 10 8 9 11 11 10 9 8 7 5 3 1 1 2 3 3 2 2 3 4 3 2 2 4 5 5 8 9 11 13 16 16
37 30 33 30 24 28 29 27 28 18 16 16 13 14 11 8 10 10 9 9 8 6 4 3 1 1 2 3 4 4 4 4 4 4 5 6 7 7 8 8 11 12 13 13
29 33 30 28 29 26 29 30 29 28 20 18 14 11 7 7 7 9 9 9 8 7 6 4 3 3 3 3 4 5 5 5 5 6 7 8 8 8 9 10 10 10 9 11
27 32 37 37 32 26 26 30 32 30 27 23 22 13 12 10 10 10 10 9 9 8 8 7 5 4 4 4 4 6 6 6 6 7 8 9 9 9 9 9 10 9 9 9
29 35 39 41 38 30 27 29 33 37 34 26 22 23 19 17 15 13 11 11 11 9 9 9 8 6 6 6 6 7 7 7 7 8 9 9 9 8 7 8 10 9 8 8
30 36 37 38 37 37 35 32 33 34 36 34 21 19 13 16 14 14 14 13 13 12 11 11 9 8 8 7 7 7 8 8 8 9 9 9 9 9 9 9 8 8 7 7
32 30 36 40 39 35 36 39 34 30 32 32 30 23 15 15 17 16 15 15 15 13 12 12 12 10 9 9 9 9 9 10 9 10 10 10 9 9 9 9 8 7 6 5
27 28 30 38 35 39 35 32 35 36 31 33 31 23 22 18 18 17 16 16 16 15 14 13 13 12 11 10 10 11 10 10 9 9 9 8 8 8 8 7 7 6 5 5
38 27 21 28 36 34 34 32 30 36 37 34 31 30 22 17 16 17 17 18 17 16 15 14 14 13 13 12 12 11 11 10 9 9 9 8 8 7 7 6 6 5 4 3
43 38 28 19 30 35 39 35 26 30 34 34 35 30 27 21 17 17 19 18 18 18 17 16 16 14 14 13 13 12 11 10 9 9 9 8 7 7 6 6 5 4 3 2
38 37 37 31 21 30 31 29 26 31 26 31 32 33 31 28 21 17 20 19 19 19 19 18 17 16 15 14 14 12 11 10 10 10 9 8 7 6 6 5 4 3 3 3
29 35 32 34 27 30 30 27 32 29 27 17 20 30 31 27 23 19 21 21 21 21 20 20 18 17 17 16 15 13 12 12 11 10 9 8 7 6 6 5 4 4 4 4
33 31 34 37 39 24 34 28 30 22 20 22 19 21 28 28 27 22 22 22 22 23 22 20 19 18 17 17 16 14 13 13 12 10 9 8 7 6 6 6 5 5 5 5
32 33 36 35 39 38 35 32 29 28 24 19 19 19 24 28 26 25 24 23 23 23 22 21 19 18 18 18 17 16 15 14 13 11 10 9 8 7 7 7 7 7 7 7
27 23 37 42 39 32 36 36 33 30 27 24 21 21 23 26 26 26 25 24 24 24 23 21 19 18 17 18 17 17 16 15 13 11 10 9 8 8 8 8 8 8 9 9
31 29 26 37 37 40 36 34 26 27 27 26 21 21 24 25 26 27 26 25 25 25 24 21 19 18 17 17 17 17 16 16 14 12 11 10 9 9 8 8 8 9 10 10
Wind_Direction
249 252 253 253 253 255 268 274 275 277 277 272 278 281 282 280 281 276 283 289 298 307 312 316 315 314 315 307 294 275 246 230 225 223 220 223 227 229 230 231 233 236 235 230
254 250 256 260 263 266 268 271 271 275 276 279 284 283 281 278 276 279 285 296 305 312 319 322 325 324 326 324 313 271 237 219 216 216 215 221 224 228 229 232 234 237 234 225
248 254 243 252 258 260 262 264 271 276 281 282 287 282 282 274 264 282 288 295 309 319 324 327 333 337 340 339 324 291 217 204 206 208 208 212 217 225 229 232 233 237 230 220
254 252 255 258 259 259 260 264 274 269 279 277 292 285 287 275 265 275 276 289 313 324 329 333 341 346 354 357 359 279 193 194 197 202 205 214 223 228 231 233 234 232 223 213
249 255 253 253 252 255 261 269 271 274 275 282 276 277 285 252 256 261 273 293 315 328 335 341 348 354 4 16 26 56 157 177 193 200 205 215 222 231 232 235 232 223 220 208
250 255 254 253 254 251 263 253 264 269 271 273 269 254 280 250 258 253 266 288 311 324 339 349 357 4 16 26 36 64 116 159 186 194 206 215 224 235 237 231 229 223 214 201
249 246 248 249 247 248 241 246 265 264 258 266 293 273 258 274 276 249 262 278 300 323 335 352 2 14 24 33 43 60 100 152 173 193 206 217 229 240 241 233 226 213 202 201
244 248 241 239 237 242 237 239 244 250 261 276 273 267 270 257 259 261 254 256 286 315 331 349 3 19 28 36 44 58 76 98 155 183 194 210 227 261 263 238 225 209 199 193
249 247 252 237 232 235 233 239 243 261 268 271 262 265 270 244 242 246 242 240 254 288 321 341 7 20 27 36 43 55 75 88 105 150 190 211 252 272 28 194 177 175 188 193
250 257 245 238 228 234 238 234 236 244 250 255 260 250 254 232 227 228 234 232 232 247 290 338 12 27 33 38 53 70 79 97 123 141 171 201 193 148 109 112 150 174 176 176
237 242 244 234 232 228 231 234 236 234 240 251 270 255 281 233 225 221 227 224 214 223 231 271 24 47 47 57 84 117 108 98 93 104 143 145 143 139 144 123 134 154 168 177
233 236 239 237 239 234 230 231 227 233 238 241 257 261 269 236 230 217 219 216 211 213 214 217 180 108 88 83 87 116 125 113 94 91 106 126 134 137 144 138 142 147 160 175
233 229 236 245 233 234 231 228 231 235 246 238 235 251 241 222 219 215 212 209 207 199 202 201 186 173 137 120 110 110 126 124 113 111 110 111 123 129 136 142 144 154 159 169
242 228 228 232 234 229 230 232 229 229 234 238 237 239 231 224 223 219 209 208 204 201 201 199 192 179 162 145 131 126 125 127 124 123 122 122 119 120 126 135 146 149 156 162
239 233 232 235 239 235 232 231 228 227 229 230 237 239 236 226 224 218 211 208 204 199 199 198 193 186 172 159 148 141 134 130 129 127 127 127 127 129 131 137 146 145 140 150
236 236 235 236 234 239 242 237 226 227 227 231 232 235 227 214 214 211 209 209 207 202 197 197 192 187 180 170 164 158 147 140 136 131 130 130 128 125 128 135 140 147 145 149
236 240 232 238 233 237 242 232 229 226 225 224 226 227 220 213 213 215 209 209 207 202 197 195 192 187 180 175 167 161 152 145 139 136 134 132 130 127 127 129 131 136 139 142
234 235 237 236 230 231 235 231 228 229 227 224 226 223 225 223 218 215 212 209 207 203 198 196 193 188 185 178 172 165 162 158 155 154 151 148 143 139 137 135 134 134 137 138
225 226 233 230 224 230 229 231 226 221 226 224 221 221 221 213 212 218 212 209 207 203 199 197 194 192 186 181 178 175 173 169 167 165 160 157 154 152 150 149 147 148 148 151
221 223 227 237 224 226 227 229 228 221 227 219 217 216 215 211 216 224 209 206 203 200 197 193 191 188 183 181 178 178 176 173 172 170 168 167 167 165 163 162 162 169 177 186
216 217 220 224 231 229 225 217 220 209 220 217 216 217 216 213 221 220 207 204 200 197 193 191 190 188 186 182 179 181 180 180 177 174 174 174 176 178 179 184 195 206 219 238
220 216 219 220 225 226 216 218 211 218 221 214 222 215 214 214 215 211 202 199 196 193 190 190 189 189 189 188 187 186 186 183 180 179 178 179 183 190 195 204 218 229 241 253
228 221 219 217 218 216 218 221 219 219 221 217 223 218 214 209 208 208 201 196 194 191 190 190 191 191 193 193 194 192 191 185 184 185 188 192 197 204 211 217 230 245 255 262
228 222 226 221 221 223 227 224 221 221 219 222 221 222 208 203 203 201 196 194 191 189 189 189 188 190 193 195 196 196 193 189 191 194 197 203 207 215 223 234 244 252 258 263
229 234 221 225 223 222 222 223 225 222 222 224 223 219 206 198 198 196 193 192 190 188 187 187 188 191 192 194 196 196 195 194 196 201 205 209 216 223 231 242 251 257 263 266
227 230 228 222 220 222 222 217 216 217 216 215 216 211 203 197 196 194 192 191 188 186 185 186 188 189 191 192 195 197 198 199 201 205 211 216 221 229 236 244 257 267 267 269